Location: Habighorst
(52.7089°N, 10.2278°E)
Time: 22:12:14
(UTC+00:00)

Okean 2 - Pass Details

Date: 13 January 2026
Orbit: 515 x 526 km, 82.5° (Epoch: 7 February)

Event Time Altitude Azimuth Distance (km) Brightness Sun altitude
Exits shadow 04:53:46 74° 357° (N) 543 3.1 -22.0°
Maximum altitude 04:54:05 88° 77° (ENE) 524 3.1 -21.9°
Drops below altitude 10° 04:57:55 10° 170° (S) 1,740 6.1 -21.4°
Sets 05:00:02 0° 170° (S) 2,622 7.0 -21.0°
